Location: ???????
(55.4362°N, 38.1183°E)
Time: 07:28:04
(UTC+00:00)

FENGYUN 1C DEB - Pass Details

Date: 05 February 2022
Orbit: 806 x 954 km, 100.9° (Epoch: 16 May)

Event Time Altitude Azimuth Distance (km) Brightness Sun altitude
Rises 02:52:07 0° 18° (NNE) 3,422 ? -20.1°
Reaches altitude 10° 02:56:18 10° 347° (NNW) 2,520 ? -19.5°
Maximum altitude 02:57:58 11° 329° (NNW) 2,435 ? -19.2°
Enters shadow 02:57:59 11° 329° (NNW) 2,435 ? -19.2°
